Location: México DF
(19.4326°N, 99.1332°W)
Time: 22:24:46
(UTC+00:00)

ISS - Pass Details

Date: 11 September 2024
Orbit: 413 x 423 km, 51.6° (Epoch: 19 September)

Event Time Altitude Azimuth Distance (km) Brightness Sun altitude
Rises 00:38:17 0° 209° (SSW) 2,332 0.4 0.3°
Reaches altitude 10° 00:40:24 10° 204° (SSW) 1,473 -0.7 -0.2°
Maximum altitude 00:43:37 50° 127° (SE) 529 -3.5 -1.0°
Drops below altitude 10° 00:46:51 10° 50° (NE) 1,482 -1.4 -1.7°
Sets 00:48:59 0° 45° (NE) 2,348 -0.3 -2.2°
